Weather in Sao Jose dos Pinhais

Brazil     25°32′11″S   49°12′15″W
temp.,
°C
wind,
m/s
gust,
m/s
humid.,
%
clouds,
%
prec.,
mm/h
press.,
hPa
HPBL,
m
21 april, wed
wed2100:00+14se399077 0.0 1019561
03:00+15se378886 0.0 1018660
06:00+14sse278995 0.0 1019527
09:00+16se367966 0.1 1020751
12:00+19se466797 0.1 10191245
15:00+18se457563 0.7 1018939
18:00+15se379481 0.6 1019457
21:00+15se279199 0.7 1020693
22 april, thu
thu2200:00+15se269199 0.1 1020662
03:00+14se3792100 0.3 1019643
06:00+13se389697 0.4 1019566
09:00+15ese368429 0.4 1021594
12:00+19se336057 0.1 10191241
15:00+18ese336299 0.2 10171019
18:00+16ese367999 0.1 1018473
21:00+14ese368598 0.1 1019397
23 april, fri
fri2300:00+14e37810 0.0 1019320
03:00+11e13945 0.0 1018120
06:00+10e00945 0.0 101912
09:00+15e13625 0.0 1019430
12:00+21ne11398 0.0 10171419
15:00+23ssw12315 0.0 10141825
18:00+16e247735 0.0 1015238
21:00+14e259188 0.0 1017192
24 april, sat
sat2400:00+13ene249478 0.0 1017203
03:00+12ne119550 0.0 101619
06:00+12wnw119239 0.0 101611
09:00+17nw12655 0.0 1017307
12:00+23w23435 0.0 10141363
15:00+20wsw3760100 0.0 1013469
18:00+18wsw386373 0.0 1014423
21:00+16wsw2678100 0.0 1016286
25 april, sun
sun2500:00+16sw1484100 0.0 1015198
03:00+16wsw1484100 0.0 1014193
06:00+15sw1397100 1.3 1014167
09:00+15w1295100 1.4 1015189
12:00+16nw279198 0.2 1014530
15:00+17wnw3119182 1.3 1012888
18:00+16wsw259698 1.8 1013158
21:00+15ssw149683 2.4 1015133